Lapse_Rate
8.1 9.5 9.4 9.3 9.4 9.5 9.5 8.4 6.7 8.4 9.4 9.5 9.6 9.5 9.5 9.6 9.3 9.1 7.2 9.2 9.0 9.4
7.6 8.4 9.3 9.1 8.8 9.5 9.2 9.5 8.8 9.5 9.4 9.5 9.5 9.5 9.2 9.1 9.2 9.2 9.2 9.3 9.3 9.1
8.7 7.5 8.6 9.5 9.1 9.2 9.4 9.0 8.8 9.5 9.5 9.5 9.5 9.4 8.7 8.5 8.9 8.2 9.3 8.9 8.0 8.7
9.4 9.3 8.4 9.4 9.4 8.8 9.3 9.4 8.7 8.5 9.4 9.2 9.3 9.4 8.2 7.7 8.1 8.6 8.0 8.9 9.1 9.0
9.3 9.4 9.4 9.3 9.4 9.3 8.4 9.0 9.1 8.9 9.1 9.0 9.2 9.3 8.4 8.7 9.4 9.0 8.8 8.9 8.3 8.9
9.2 9.3 9.3 9.3 9.5 9.4 9.3 9.1 9.5 9.2 8.5 8.8 9.2 9.0 8.7 8.7 8.8 9.2 9.3 9.2 9.2 9.0
9.1 9.3 9.4 9.4 9.1 9.4 9.2 9.2 9.2 9.3 9.4 9.3 9.3 9.4 9.4 9.1 8.0 7.9 9.0 8.6 8.4 8.4
8.2 8.9 9.0 9.0 9.1 9.0 9.2 9.2 9.1 9.1 9.3 9.3 9.4 9.7 9.0 9.1 8.3 8.0 8.2 8.9 9.2 9.2
8.2 8.2 8.7 8.5 8.5 8.5 8.7 8.9 8.8 8.9 8.8 8.9 8.0 -0.3 0.3 2.3 9.1 8.7 9.0 8.6 9.1 9.3
8.6 8.6 8.8 8.9 8.8 8.6 8.5 8.3 7.5 7.3 7.4 7.5 7.1 -2.2 -1.7 -0.9 5.7 6.7 7.0 7.5 7.7 8.4
8.9 8.7 8.7 8.7 8.7 8.6 8.8 8.0 7.9 6.9 6.1 6.7 1.3 -2.6 -2.4 -1.6 2.8 4.5 4.8 5.1 5.2 5.4
9.0 8.7 8.5 7.8 8.3 8.5 7.0 6.8 5.8 5.5 5.0 4.8 5.9 -2.4 -2.2 -1.8 3.2 4.8 4.9 5.4 5.3 5.4
8.4 7.8 8.3 4.9 2.7 3.5 6.5 7.0 6.5 5.3 5.1 -0.4 4.3 -1.9 -2.4 -1.9 2.8 4.1 5.6 5.6 6.9 5.8
5.6 4.1 4.8 3.8 4.0 4.7 5.4 6.8 7.1 6.0 5.2 4.8 4.4 4.1 -2.4 -1.7 2.4 5.0 5.6 6.5 7.2 8.7
Wind_Speed
15 11 10 10 9 9 9 3 8 11 10 10 10 10 8 7 7 8 4 9 7 8
14 14 13 13 12 9 6 8 4 7 10 11 11 10 8 8 7 8 8 8 7 8
17 15 14 12 12 11 11 10 7 8 8 9 10 10 9 9 10 10 8 7 8 8
16 17 16 13 12 11 11 9 10 9 9 9 10 11 9 11 11 7 10 11 10 9
15 15 16 15 14 13 12 12 10 11 11 11 11 10 10 12 12 11 12 12 11 12
17 16 15 14 14 13 13 13 14 12 11 11 12 11 12 11 11 12 12 12 12 12
16 16 15 13 13 12 12 12 12 12 12 12 13 13 13 12 10 11 13 12 12 12
15 14 13 12 11 11 11 12 12 12 12 12 13 12 14 13 13 12 13 13 12 13
13 13 13 12 12 12 12 11 11 12 12 12 9 6 8 5 11 11 11 12 13 13
12 12 12 12 11 12 12 10 11 9 9 11 4 5 7 8 6 10 12 12 13 14
12 12 12 12 13 12 11 11 10 6 5 6 5 6 8 7 6 10 13 13 14 14
13 13 12 12 11 9 4 6 5 6 5 5 5 7 5 4 8 11 12 12 13 13
10 10 11 6 10 4 4 2 4 5 4 3 5 9 8 4 8 11 10 12 12 12
8 11 12 10 9 6 6 4 3 4 2 3 3 1 8 6 8 9 11 11 12 12
Wind_Direction
205 207 225 212 216 220 252 263 143 179 203 220 247 221 238 241 240 252 287 229 246 295
202 219 209 225 213 244 249 252 224 204 190 215 217 225 227 241 254 269 242 262 240 224
203 207 223 214 224 222 224 230 270 226 230 231 230 225 218 235 225 239 260 259 253 238
205 206 211 223 217 223 230 221 215 237 236 236 232 230 225 235 270 248 229 249 272 272
201 210 207 215 214 210 217 221 223 221 228 233 249 246 224 231 248 242 237 239 239 256
205 207 217 205 218 208 212 218 223 218 226 233 237 242 250 248 247 253 255 259 260 249
206 208 211 215 204 217 209 218 223 230 226 227 236 239 242 243 239 259 262 263 269 273
203 205 206 206 206 208 216 216 223 225 232 235 238 239 239 246 245 245 256 258 263 257
198 203 204 201 197 202 213 217 219 229 234 233 243 44 34 338 259 257 267 276 273 266
194 205 202 203 204 208 213 212 218 221 232 240 184 77 56 28 287 276 273 277 277 277
199 195 197 199 209 211 216 225 212 193 202 235 116 102 58 14 284 268 268 269 271 271
201 193 191 200 193 201 156 160 200 183 194 221 228 136 118 308 291 276 275 271 267 269
193 170 183 134 117 113 98 166 196 197 186 77 272 172 179 254 303 292 291 289 279 256
100 107 120 103 107 110 148 148 178 203 205 253 264 269 178 198 298 294 300 297 292 285